period_start,C,m1,H,J0,J1,J2,J3,J4,J5,JA,JB,JC,JD,JJ,JK,JN,#
2017-12-21 00:03:15,0.00,1.77,0.00,15.37,18.94,22.28,14.36,46.75,1015.66,2057.98,2772.95,2684.97,3056.99,600.13,611.39,20.40,0000 0000 0000 0000 000000
2017-12-21 00:08:16,0.01,1.77,0.00,15.37,18.94,22.27,14.38,46.70,1015.65,2057.99,2772.35,2684.92,3056.98,600.22,611.57,20.45,0000 0000 0000 0000 000000
2017-12-21 00:13:17,0.03,1.77,0.00,15.35,18.93,22.22,14.31,46.61,1015.64,2057.99,2772.06,2684.44,3056.72,599.74,611.05,20.50,0000 0000 0000 0000 000000
2017-12-21 00:18:18,0.01,1.77,0.00,15.34,18.92,22.24,14.28,46.67,1015.64,2057.98,2772.00,2684.06,3056.15,599.87,611.28,20.55,0000 0000 0000 0000 000000
2017-12-21 00:23:20,0.00,1.77,0.00,15.33,18.91,22.24,14.34,46.77,1015.64,2057.99,2772.00,2684.01,3056.01,599.95,611.23,20.60,0000 0000 0000 0000 000000
2017-12-21 00:28:21,0.01,1.77,0.00,15.32,18.89,22.23,14.30,46.70,1015.64,2057.99,2771.76,2684.00,3056.00,599.98,611.37,20.65,0000 0000 0000 0000 000000
2017-12-21 00:33:22,0.01,1.77,0.00,15.32,18.89,22.21,14.39,46.77,1015.64,2057.99,2771.20,2683.99,3055.99,600.29,611.50,20.70,0000 0000 0000 0000 000000
2017-12-21 00:38:23,0.01,1.78,0.00,15.31,18.87,22.24,14.30,46.69,1015.64,2057.99,2771.01,2683.93,3055.81,599.92,611.34,20.75,0000 0000 0000 0000 000000
2017-12-21 00:43:25,0.02,1.78,0.00,15.30,18.87,22.21,14.33,46.68,1015.63,2057.99,2770.93,2683.66,3055.29,599.85,611.20,20.80,0000 0000 0000 0000 000000
2017-12-21 00:48:26,0.03,1.78,0.00,15.29,18.86,22.23,14.26,46.67,1015.62,2058.00,2770.17,2683.14,3055.13,599.64,610.94,20.85,0000 0000 0000 0000 000000
2017-12-21 00:53:27,0.00,1.78,0.00,15.28,18.84,22.19,14.33,46.71,1015.63,2058.00,2770.00,2683.02,3055.02,599.95,611.31,20.90,0000 0000 0000 0000 000000
2017-12-21 00:58:29,0.00,1.78,0.00,15.27,18.84,22.23,14.33,46.65,1015.64,2058.01,2769.99,2683.00,3054.97,599.95,611.29,20.95,0000 0000 0000 0000 000000
2017-12-21 01:03:30,0.01,1.78,0.00,15.26,18.82,22.17,14.36,46.71,1015.60,2058.02,2769.69,2682.99,3054.75,600.12,611.54,21.00,0000 0000 0000 0000 000000
2017-12-21 01:08:31,0.02,1.78,0.00,15.26,18.82,22.19,14.34,46.65,1015.42,2058.02,2769.07,2682.83,3054.18,600.09,611.50,21.05,0000 0000 0000 0000 000000
2017-12-21 01:13:32,0.02,1.78,0.00,15.24,18.81,22.21,14.38,46.83,1015.49,2058.04,2769.00,2682.37,3054.02,599.93,611.13,21.10,0000 0000 0000 0000 000000
2017-12-21 01:18:34,0.01,1.78,0.00,15.23,18.79,22.17,14.31,46.73,1015.55,2058.07,2768.96,2682.04,3053.99,600.11,611.57,21.15,0000 0000 0000 0000 000000
2017-12-21 01:23:35,0.02,1.78,0.00,15.22,18.79,22.12,14.34,46.62,1015.61,2058.11,2768.26,2682.00,3053.97,600.05,611.64,21.20,0000 0000 0000 0000 000000
2017-12-21 01:28:36,0.02,1.78,0.00,15.21,18.78,22.13,14.33,46.69,1015.64,2058.26,2768.02,2682.00,3053.59,599.88,611.44,21.25,0000 0000 0000 0000 000000
2017-12-21 01:33:38,0.01,1.79,0.00,15.20,18.77,22.14,14.39,46.70,1015.64,2058.32,2767.99,2681.95,3053.09,599.92,611.53,21.30,0000 0000 0000 0000 000000
2017-12-21 01:38:39,0.04,1.79,0.00,15.19,18.77,22.08,14.31,46.67,1015.63,2058.49,2767.86,2681.63,3053.00,599.62,611.26,21.35,0000 0000 0000 0000 000000
2017-12-21 01:43:41,0.02,1.79,0.00,15.19,18.75,22.08,14.33,46.62,1015.60,2058.35,2767.12,2681.06,3052.96,600.13,611.65,21.40,0000 0000 0000 0000 000000
2017-12-21 01:48:42,0.03,1.79,0.00,15.17,18.74,22.09,14.23,46.66,1015.63,2058.69,2767.00,2681.00,3052.79,599.86,611.58,21.45,0000 0000 0000 0000 000000
2017-12-21 01:53:43,0.04,1.79,0.00,15.17,18.74,22.06,14.35,46.66,1015.62,2058.89,2766.81,2681.00,3052.27,600.31,611.91,21.50,0000 0000 0000 0000 000000
2017-12-21 01:58:45,0.02,1.79,0.00,15.17,18.72,22.02,14.25,46.69,1015.61,2058.91,2766.08,2680.95,3052.04,599.87,611.49,21.55,0000 0000 0000 0000 000000
2017-12-21 02:03:46,0.02,1.79,0.00,15.16,18.72,22.05,14.28,46.75,1015.62,2058.95,2766.00,2680.52,3051.99,599.74,611.39,21.60,0000 0000 0000 0000 000000
2017-12-21 02:08:47,0.01,1.80,0.00,15.14,18.71,22.02,14.35,46.77,1015.64,2058.95,2766.00,2680.10,3051.83,599.88,611.68,21.65,0000 0000 0000 0000 000000
2017-12-21 02:13:48,0.01,1.80,0.00,15.14,18.69,22.03,14.37,46.70,1015.62,2058.96,2765.83,2680.01,3051.20,600.29,611.87,21.70,0000 0000 0000 0000 000000
2017-12-21 02:18:49,0.01,1.80,0.00,15.12,18.69,22.04,14.39,46.76,1015.62,2058.98,2765.09,2680.00,3051.05,600.14,611.93,21.75,0000 0000 0000 0000 000000
2017-12-21 02:23:51,0.00,1.80,0.00,15.12,18.68,22.03,14.40,46.73,1015.51,2058.98,2765.00,2679.97,3051.01,600.49,612.08,21.80,0000 0000 0000 0000 000000
2017-12-21 02:28:53,0.00,1.80,0.00,15.10,18.67,22.00,14.23,46.63,1015.33,2058.99,2764.91,2679.93,3051.00,599.85,611.53,21.85,0000 0000 0000 0000 000000
2017-12-21 02:33:54,0.04,1.80,0.00,15.09,18.67,22.00,14.26,46.58,1015.33,2058.99,2764.33,2679.47,3050.72,600.02,611.63,21.90,0000 0000 0000 0000 000000
2017-12-21 02:38:56,0.02,1.80,0.00,15.09,18.65,22.02,14.37,46.58,1015.22,2058.99,2764.01,2679.04,3050.12,599.87,611.44,21.95,0000 0000 0000 0000 000000
2017-12-21 02:43:57,0.00,1.80,0.00,15.08,18.64,22.00,14.35,46.64,1015.23,2058.99,2763.97,2679.00,3050.00,599.94,611.71,22.00,0000 0000 0000 0000 000000
2017-12-21 02:48:59,0.01,1.80,0.00,15.07,18.64,21.99,14.33,46.69,1015.21,2058.99,2763.60,2678.98,3049.98,599.77,611.46,22.06,0000 0000 0000 0000 000000
2017-12-21 02:54:00,0.01,1.80,0.00,15.07,18.62,21.97,14.31,46.71,1015.19,2058.99,2763.04,2678.84,3049.89,599.64,611.28,22.11,0000 0000 0000 0000 000000
2017-12-21 02:59:02,0.04,1.80,0.00,15.04,18.62,22.02,14.41,46.75,1015.15,2058.99,2762.84,2678.14,3049.19,600.23,611.90,22.16,0000 0000 0000 0000 000000
2017-12-21 03:04:04,0.01,1.81,0.00,15.03,18.60,21.98,14.33,46.85,1015.15,2058.99,2762.10,2678.01,3049.03,600.00,611.62,22.21,0000 0000 0000 0000 000000
2017-12-21 03:09:05,0.00,1.81,0.00,15.02,18.59,21.98,14.35,46.90,1015.15,2059.03,2762.00,2678.00,3049.00,600.09,611.79,22.26,0000 0000 0000 0000 000000
2017-12-21 03:14:07,-0.00,1.81,0.00,15.01,18.59,21.93,14.37,46.82,1015.15,2059.03,2761.93,2677.98,3048.97,600.07,611.75,22.31,0000 0000 0000 0000 000000
2017-12-21 03:19:08,0.04,1.81,0.00,14.99,18.58,21.95,14.33,46.88,1015.15,2059.09,2761.23,2677.69,3048.72,599.95,611.59,22.36,0000 0000 0000 0000 000000
2017-12-21 03:24:10,0.03,1.81,0.00,15.00,18.57,21.91,14.29,46.87,1015.15,2059.07,2760.99,2677.06,3048.06,599.49,611.27,22.41,0000 0000 0000 0000 000000
2017-12-21 03:29:12,0.02,1.81,0.00,14.98,18.57,21.91,14.43,46.97,1015.15,2059.19,2760.79,2677.00,3048.00,600.06,611.74,22.46,0000 0000 0000 0000 000000
2017-12-21 03:34:13,0.01,1.81,0.00,14.97,18.57,21.90,14.35,46.93,1015.15,2059.18,2760.09,2676.98,3047.92,600.27,611.92,22.51,0000 0000 0000 0000 000000
2017-12-21 03:39:15,0.03,1.81,0.00,14.97,18.57,21.88,14.32,46.85,1015.15,2059.33,2760.00,2676.81,3047.26,600.01,611.78,22.56,0000 0000 0000 0000 000000
2017-12-21 03:44:16,0.05,1.81,0.00,14.95,18.57,21.88,14.33,46.77,1015.15,2059.51,2759.94,2676.17,3047.02,600.02,611.71,22.61,0000 0000 0000 0000 000000
2017-12-21 03:49:17,0.01,1.82,0.00,14.93,18.55,21.87,14.34,46.83,1015.14,2059.55,2759.36,2676.01,3046.98,599.91,611.85,22.66,0000 0000 0000 0000 000000
2017-12-21 03:54:18,0.02,1.82,0.00,14.93,18.54,21.85,14.44,46.82,1015.15,2059.57,2759.00,2676.00,3046.68,600.00,611.83,22.71,0000 0000 0000 0000 000000
2017-12-21 03:59:20,0.03,1.82,0.00,14.92,18.54,21.83,14.36,46.83,1015.14,2059.81,2758.90,2675.93,3046.07,599.85,611.73,22.76,0000 0000 0000 0000 000000
2017-12-21 04:04:21,0.05,1.82,0.00,14.92,18.54,21.83,14.34,46.88,1015.12,2059.86,2758.12,2675.25,3046.00,600.08,611.94,22.81,0000 0000 0000 0000 000000
2017-12-21 04:09:22,0.01,1.82,0.00,14.91,18.53,21.82,14.34,46.90,1014.93,2059.96,2758.00,2675.04,3045.94,599.91,611.76,22.86,0000 0000 0000 0000 000000
2017-12-21 04:14:24,0.01,1.82,0.00,14.89,18.52,21.79,14.29,46.92,1014.87,2059.94,2757.88,2675.00,3045.23,599.78,611.55,22.91,0000 0000 0000 0000 000000
2017-12-21 04:19:25,0.02,1.82,0.00,14.89,18.52,21.81,14.24,46.89,1014.87,2059.97,2757.16,2674.98,3045.01,599.97,611.73,22.96,0000 0000 0000 0000 000000
2017-12-21 04:24:26,0.02,1.82,0.00,14.89,18.51,21.79,14.28,46.91,1014.82,2059.98,2756.98,2674.58,3044.99,599.66,611.32,23.01,0000 0000 0000 0000 000000
2017-12-21 04:29:27,0.02,1.83,0.00,14.89,18.49,21.77,14.35,46.98,1014.78,2059.98,2756.37,2674.03,3044.80,600.05,611.64,23.06,0000 0000 0000 0000 000000
2017-12-21 04:34:29,0.01,1.83,0.00,14.89,18.49,21.78,14.38,46.98,1014.76,2059.99,2756.00,2674.00,3044.14,599.90,611.64,23.11,0000 0000 0000 0000 000000
2017-12-21 04:39:30,0.00,1.83,0.00,14.89,18.48,21.80,14.26,46.93,1014.89,2059.98,2755.90,2673.97,3044.00,599.77,611.53,23.16,0000 0000 0000 0000 000000
2017-12-21 04:44:31,0.03,1.83,0.00,14.89,18.47,21.77,14.32,47.01,1014.80,2059.99,2755.14,2673.50,3043.97,600.21,611.92,23.21,0000 0000 0000 0000 000000
2017-12-21 04:49:32,0.02,1.83,0.00,14.89,18.47,21.81,14.43,47.03,1014.71,2059.99,2755.00,2673.04,3043.47,600.01,611.72,23.26,0000 0000 0000 0000 000000
2017-12-21 04:54:34,0.01,1.83,0.00,14.88,18.45,21.74,14.42,47.04,1014.68,2059.99,2754.67,2673.00,3043.02,600.55,612.22,23.31,0000 0000 0000 0000 000000
2017-12-21 04:59:35,0.01,1.83,0.00,14.87,18.44,21.77,14.32,47.08,1014.66,2059.99,2754.03,2672.95,3042.98,600.03,611.79,23.36,0000 0000 0000 0000 000000
2017-12-21 05:04:36,0.04,1.83,0.00,14.87,18.44,21.70,14.35,46.96,1014.67,2060.00,2753.92,2672.31,3042.39,600.06,611.82,23.41,0000 0000 0000 0000 000000
2017-12-21 05:09:38,0.02,1.84,0.00,14.87,18.42,21.82,14.42,46.98,1014.68,2060.00,2753.17,2672.01,3042.02,600.07,611.91,23.46,0000 0000 0000 0000 000000
2017-12-21 05:14:39,0.00,1.84,0.00,14.85,18.42,21.81,14.33,47.13,1014.69,2060.00,2752.99,2672.00,3041.99,600.34,612.21,23.51,0000 0000 0000 0000 000000
2017-12-21 05:19:40,0.02,1.84,0.00,14.85,18.42,21.78,14.32,47.10,1014.67,2060.01,2752.45,2671.87,3041.72,600.36,612.07,23.56,0000 0000 0000 0000 000000
2017-12-21 05:24:41,0.03,1.84,0.00,14.85,18.40,21.75,14.27,47.13,1014.68,2060.03,2752.01,2671.28,3041.14,599.65,611.36,23.61,0000 0000 0000 0000 000000
2017-12-21 05:29:43,0.02,1.84,0.00,14.85,18.39,21.73,14.36,47.18,1014.71,2060.06,2751.83,2671.01,3041.00,599.89,611.72,23.66,0000 0000 0000 0000 000000
2017-12-21 05:34:44,0.01,1.84,0.00,14.87,18.39,21.69,14.29,47.06,1014.67,2060.07,2751.12,2670.97,3040.88,599.72,611.45,23.71,0000 0000 0000 0000 000000
2017-12-21 05:39:45,0.03,1.84,0.00,14.85,18.39,21.67,14.47,47.19,1014.67,2060.05,2750.99,2670.45,3040.16,600.31,612.06,23.76,0000 0000 0000 0000 000000
2017-12-21 05:44:46,0.02,1.84,0.00,14.85,18.38,21.69,14.28,47.16,1014.67,2060.14,2750.50,2670.04,3040.00,599.75,611.50,23.81,0000 0000 0000 0000 000000
2017-12-21 05:49:48,0.04,1.85,0.00,14.84,18.37,21.63,14.38,47.17,1014.66,2060.37,2750.01,2669.99,3039.99,600.08,611.90,23.86,0000 0000 0000 0000 000000
2017-12-21 05:54:49,0.03,1.85,0.00,14.83,18.37,21.68,14.31,47.26,1014.66,2060.58,2749.93,2669.94,3039.48,599.98,611.71,23.91,0000 0000 0000 0000 000000
2017-12-21 05:59:50,0.05,1.85,0.00,14.84,18.37,21.65,14.30,47.13,1014.66,2060.65,2749.17,2669.26,3039.01,600.13,611.82,23.96,0000 0000 0000 0000 000000
2017-12-21 06:04:51,0.02,1.85,0.00,14.86,18.37,21.64,14.40,47.08,1014.66,2060.85,2748.98,2669.00,3038.95,600.25,611.95,24.01,0000 0000 0000 0000 000000
2017-12-21 06:09:52,0.03,1.85,0.00,14.85,18.36,21.65,14.42,47.06,1014.66,2060.93,2748.26,2668.98,3038.31,600.11,611.83,24.06,0000 0000 0000 0000 000000
2017-12-21 06:14:54,0.03,1.86,0.00,14.84,18.35,21.71,14.27,47.17,1014.66,2060.96,2747.94,2668.51,3038.01,599.96,611.61,24.11,0000 0000 0000 0000 000000
2017-12-21 06:19:55,0.02,1.86,0.00,14.85,18.34,21.72,14.29,47.22,1014.66,2060.97,2747.27,2668.05,3037.98,599.62,611.38,24.16,0000 0000 0000 0000 000000
2017-12-21 06:24:56,0.01,1.86,0.00,14.85,18.34,21.67,14.33,47.23,1014.66,2060.98,2746.99,2668.00,3037.50,600.20,611.94,24.21,0000 0000 0000 0000 000000
2017-12-21 06:29:58,0.02,1.86,0.00,14.87,18.34,21.69,14.34,47.31,1014.66,2060.98,2746.51,2667.80,3037.02,600.15,611.91,24.26,0000 0000 0000 0000 000000
2017-12-21 06:34:59,0.03,1.86,0.00,14.86,18.34,21.69,14.34,47.22,1014.66,2060.99,2746.01,2667.08,3036.89,600.35,611.99,24.31,0000 0000 0000 0000 000000
2017-12-21 06:40:00,0.03,1.86,0.00,14.87,18.34,21.63,14.32,47.28,1014.66,2060.98,2745.59,2666.99,3036.12,599.74,611.47,24.36,0000 0000 0000 0000 000000
2017-12-21 06:45:01,0.02,1.86,0.00,14.88,18.34,21.63,14.33,47.19,1014.66,2060.99,2745.02,2666.67,3035.98,599.91,611.47,24.41,0000 0000 0000 0000 000000
2017-12-21 06:50:02,0.03,1.87,0.00,14.87,18.34,21.62,14.36,47.26,1014.66,2060.99,2744.76,2666.06,3035.43,600.26,611.94,24.46,0000 0000 0000 0000 000000
2017-12-21 06:55:04,0.01,1.87,0.00,14.89,18.34,21.60,14.28,47.19,1014.66,2060.98,2744.05,2665.99,3035.01,599.85,611.41,24.51,0000 0000 0000 0000 000000
2017-12-21 07:00:05,0.03,1.87,0.00,14.92,18.34,21.65,14.35,47.31,1014.66,2060.99,2743.80,2665.69,3034.80,599.96,611.47,24.56,0000 0000 0000 0000 000000
2017-12-21 07:05:06,0.03,1.87,0.00,14.92,18.34,21.66,14.33,47.31,1014.66,2060.99,2743.06,2665.07,3034.13,599.89,611.56,24.61,0000 0000 0000 0000 000000
2017-12-21 07:10:08,0.01,1.87,0.00,14.93,18.34,21.60,14.30,47.37,1014.66,2060.99,2742.66,2664.99,3033.98,600.00,611.49,24.66,0000 0000 0000 0000 000000
2017-12-21 07:15:09,0.04,1.87,0.00,14.94,18.34,21.68,14.33,47.17,1014.65,2060.99,2742.03,2664.58,3033.47,600.38,612.00,24.71,0000 0000 0000 0000 000000
2017-12-21 07:20:10,0.02,1.87,0.00,14.96,18.34,21.67,14.32,47.27,1014.66,2060.99,2741.77,2664.04,3033.01,600.18,611.77,24.76,0000 0000 0000 0000 000000
2017-12-21 07:25:11,0.01,1.88,0.00,14.97,18.34,21.63,14.39,47.34,1014.66,2060.99,2741.04,2663.99,3032.82,600.64,611.99,24.81,0000 0000 0000 0000 000000
2017-12-21 07:30:12,0.04,1.88,0.00,14.97,18.34,21.66,14.37,47.30,1014.66,2060.99,2740.71,2663.47,3032.07,600.15,611.53,24.86,0000 0000 0000 0000 000000
2017-12-21 07:35:14,0.01,1.88,0.00,14.95,18.34,21.70,14.32,47.42,1014.66,2060.99,2740.04,2663.01,3031.98,599.56,611.08,24.91,0000 0000 0000 0000 000000
2017-12-21 07:40:15,0.01,1.88,0.00,14.98,18.34,21.65,14.32,47.38,1014.66,2060.99,2739.87,2662.97,3031.57,600.04,611.51,24.96,0000 0000 0000 0000 000000
2017-12-21 07:45:16,0.05,1.88,0.00,14.99,18.35,21.71,14.31,47.38,1014.66,2060.99,2739.09,2662.37,3031.03,599.93,611.32,25.01,0000 0000 0000 0000 000000
2017-12-21 07:50:18,0.01,1.88,0.00,15.01,18.36,21.65,14.34,47.48,1014.66,2060.99,2738.84,2662.02,3030.78,600.20,611.53,25.06,0000 0000 0000 0000 000000
2017-12-21 07:55:19,0.02,1.89,0.00,15.01,18.37,21.72,14.36,47.51,1014.66,2060.99,2738.10,2661.96,3030.07,600.10,611.73,25.12,0000 0000 0000 0000 000000
2017-12-21 08:00:20,0.03,1.89,0.00,15.00,18.37,21.77,14.40,47.55,1014.66,2060.99,2737.70,2661.39,3030.00,600.40,611.82,25.17,0000 0000 0000 0000 000000
2017-12-21 08:05:21,0.02,1.89,0.00,15.02,18.37,21.72,14.25,47.71,1014.66,2060.99,2737.01,2661.00,3029.61,599.87,611.17,25.22,0000 0000 0000 0000 000000
2017-12-21 08:10:22,0.02,1.89,0.00,15.04,18.38,21.73,14.29,47.71,1014.66,2060.99,2736.41,2660.94,3029.04,599.79,611.14,25.27,0000 0000 0000 0000 000000
2017-12-21 08:15:23,0.03,1.89,0.00,15.05,18.39,21.73,14.35,47.82,1014.66,2061.00,2736.01,2660.40,3028.99,599.78,611.01,25.32,0000 0000 0000 0000 000000
2017-12-21 08:20:24,0.02,1.89,0.00,15.06,18.39,21.70,14.29,47.74,1014.66,2061.01,2735.84,2660.01,3028.44,599.88,611.22,25.37,0000 0000 0000 0000 000000
2017-12-21 08:25:25,0.01,1.89,0.00,15.07,18.39,21.72,14.28,47.63,1014.66,2061.00,2735.09,2659.98,3028.01,599.71,611.06,25.42,0000 0000 0000 0000 000000
2017-12-21 08:30:26,0.01,1.89,0.00,15.09,18.40,21.75,14.26,47.61,1014.66,2061.01,2734.99,2659.73,3027.98,599.49,610.74,25.47,0000 0000 0000 0000 000000
2017-12-21 08:35:28,0.04,1.90,0.00,15.11,18.42,21.78,14.29,47.69,1014.68,2061.01,2734.44,2659.09,3027.39,600.14,611.34,25.52,0000 0000 0000 0000 000000
2017-12-21 08:40:29,0.00,1.90,0.00,15.12,18.42,21.74,14.32,47.69,1014.73,2061.01,2733.99,2658.99,3027.01,599.99,611.25,25.57,0000 0000 0000 0000 000000
2017-12-21 08:45:30,0.04,1.90,0.00,15.12,18.42,21.81,14.28,47.68,1014.71,2061.01,2733.28,2658.66,3026.70,599.84,610.98,25.62,0000 0000 0000 0000 000000
2017-12-21 08:50:32,0.02,1.90,0.00,15.15,18.44,21.85,14.36,47.65,1014.74,2061.01,2733.00,2658.03,3026.03,600.04,611.15,25.67,0000 0000 0000 0000 000000
2017-12-21 08:55:33,0.00,1.90,0.00,15.15,18.44,21.78,14.30,47.65,1014.78,2061.00,2732.96,2658.00,3025.96,599.83,611.00,25.72,0000 0000 0000 0000 000000
2017-12-21 09:00:35,0.04,1.90,0.00,15.17,18.47,21.82,14.34,47.65,1014.79,2061.00,2732.28,2657.92,3025.27,600.13,611.32,25.77,0000 0000 0000 0000 000000
2017-12-21 09:05:36,0.03,1.90,0.00,15.20,18.47,21.87,14.29,47.65,1014.77,2061.00,2732.00,2657.18,3025.00,599.70,610.74,25.82,0000 0000 0000 0000 000000
2017-12-21 09:10:38,0.02,1.91,0.00,15.21,18.48,21.84,14.27,47.67,1014.71,2061.00,2731.50,2657.00,3024.79,599.46,610.39,25.87,0000 0000 0000 0000 000000
2017-12-21 09:15:39,0.01,1.91,0.00,15.23,18.49,21.89,14.30,47.46,1014.79,2060.99,2731.01,2656.98,3024.11,599.83,610.82,25.92,0000 0000 0000 0000 000000
2017-12-21 09:20:41,0.03,1.91,0.00,15.25,18.50,21.86,14.24,47.49,1014.97,2060.99,2730.88,2656.42,3023.99,599.88,610.99,25.97,0000 0000 0000 0000 000000
2017-12-21 09:25:42,0.03,1.91,0.00,15.26,18.52,21.84,14.34,47.63,1015.11,2060.97,2730.09,2656.01,3023.47,600.24,611.23,26.02,0000 0000 0000 0000 000000
2017-12-21 09:30:44,0.01,1.91,0.00,15.29,18.52,21.87,14.32,47.67,1015.12,2060.97,2729.97,2655.97,3023.00,599.71,610.79,26.07,0000 0000 0000 0000 000000
2017-12-21 09:35:45,0.04,1.91,0.00,15.31,18.53,21.87,14.35,47.73,1015.14,2060.95,2729.39,2655.52,3022.83,600.22,611.20,26.12,0000 0000 0000 0000 000000
2017-12-21 09:40:46,0.01,1.91,0.00,15.33,18.54,21.82,14.28,47.61,1015.14,2060.90,2729.01,2655.03,3022.14,599.72,610.65,26.17,0000 0000 0000 0000 000000
2017-12-21 09:45:47,-0.03,1.91,0.00,15.36,18.55,21.86,14.40,47.61,1015.15,2060.72,2728.97,2654.99,3021.98,600.02,610.89,26.22,0000 0000 0000 0000 000000
2017-12-21 09:50:49,0.02,1.91,0.00,15.37,18.57,21.85,14.30,47.49,1015.15,2060.38,2728.41,2654.73,3021.43,599.78,610.90,26.27,0000 0000 0000 0000 000000
2017-12-21 09:55:50,-0.00,1.91,0.00,15.39,18.57,21.91,14.29,47.61,1015.15,2060.17,2728.00,2654.08,3021.03,600.06,610.96,26.32,0000 0000 0000 0000 000000
2017-12-21 10:00:51,0.01,1.91,0.00,15.42,18.58,21.89,14.28,47.52,1015.15,2060.08,2727.60,2653.99,3020.99,600.08,610.90,26.37,0000 0000 0000 0000 000000
2017-12-21 10:05:53,0.02,1.91,0.00,15.42,18.59,21.90,14.27,47.51,1015.16,2060.06,2727.07,2653.93,3020.46,599.65,610.46,26.42,0000 0000 0000 0000 000000
2017-12-21 10:10:54,0.02,1.92,0.00,15.43,18.60,21.95,14.28,47.50,1015.17,2060.04,2726.99,2653.39,3020.01,600.01,610.78,26.47,0000 0000 0000 0000 000000
2017-12-21 10:15:56,0.01,1.92,0.00,15.45,18.62,22.01,14.35,47.58,1015.26,2060.02,2726.77,2653.03,3019.98,599.97,610.85,26.52,0000 0000 0000 0000 000000
2017-12-21 10:20:57,0.02,1.92,0.00,15.48,18.63,22.01,14.28,47.45,1015.40,2060.02,2726.05,2653.00,3019.74,599.93,610.78,26.57,0000 0000 0000 0000 000000
2017-12-21 10:25:58,0.01,1.92,0.00,15.49,18.64,21.97,14.31,47.52,1015.46,2060.02,2726.00,2652.93,3019.11,600.15,611.01,26.62,0000 0000 0000 0000 000000
2017-12-21 10:30:59,0.02,1.92,0.00,15.50,18.65,22.00,14.33,47.48,1015.56,2060.01,2725.72,2652.50,3019.00,599.85,610.71,26.67,0000 0000 0000 0000 000000
2017-12-21 10:36:01,0.02,1.92,0.00,15.51,18.67,22.07,14.33,47.47,1015.57,2060.00,2725.04,2652.02,3018.88,600.24,611.10,26.72,0000 0000 0000 0000 000000
2017-12-21 10:41:03,0.01,1.92,0.00,15.53,18.68,22.05,14.30,47.59,1015.56,2060.00,2724.94,2651.99,3018.15,599.97,610.73,26.77,0000 0000 0000 0000 000000
2017-12-21 10:46:04,0.01,1.92,0.00,15.55,18.69,22.11,14.32,47.54,1015.57,2060.00,2724.43,2651.90,3018.00,600.03,610.83,26.82,0000 0000 0000 0000 000000
2017-12-21 10:51:05,0.03,1.92,0.00,15.59,18.71,22.07,14.29,47.53,1015.62,2060.00,2724.01,2651.33,3017.86,600.00,610.79,26.87,0000 0000 0000 0000 000000
2017-12-21 10:56:07,0.01,1.93,0.00,15.61,18.72,22.04,14.32,47.49,1015.64,2059.99,2724.00,2651.02,3017.10,599.90,610.68,26.92,0000 0000 0000 0000 000000
2017-12-21 11:01:08,0.01,1.93,0.00,15.61,18.74,22.08,14.42,47.38,1015.63,2059.99,2723.64,2650.98,3016.99,600.61,611.19,26.97,0000 0000 0000 0000 000000
2017-12-21 11:06:09,0.03,1.93,0.00,15.61,18.75,22.09,14.34,47.42,1015.64,2059.97,2723.02,2650.66,3016.71,600.17,610.87,27.02,0000 0000 0000 0000 000000
2017-12-21 11:11:10,0.02,1.93,0.00,15.65,18.77,22.17,14.30,47.38,1015.64,2059.95,2722.95,2650.08,3016.07,599.76,610.37,27.07,0000 0000 0000 0000 000000
2017-12-21 11:16:12,0.01,1.93,0.00,15.68,18.79,22.16,14.34,47.38,1015.64,2059.91,2722.22,2650.00,3016.00,599.83,610.35,27.12,0000 0000 0000 0000 000000
2017-12-21 11:21:13,-0.01,1.93,0.00,15.69,18.80,22.19,14.28,47.27,1015.64,2059.80,2722.01,2649.98,3015.97,599.64,610.28,27.17,0000 0000 0000 0000 000000
2017-12-21 11:26:15,0.02,1.93,0.00,15.70,18.82,22.21,14.29,47.47,1015.64,2059.59,2721.81,2649.45,3015.27,599.80,610.36,27.22,0000 0000 0000 0000 000000
2017-12-21 11:31:16,0.03,1.93,0.00,15.72,18.83,22.21,14.32,47.44,1015.64,2059.56,2721.13,2649.06,3015.02,600.22,610.69,27.27,0000 0000 0000 0000 000000
2017-12-21 11:36:18,-0.01,1.93,0.00,15.72,18.84,22.20,14.25,47.51,1015.64,2059.46,2721.00,2649.00,3014.99,600.12,610.72,27.32,0000 0000 0000 0000 000000
2017-12-21 11:41:19,-0.01,1.93,0.00,15.75,18.87,22.18,14.28,47.52,1015.64,2059.23,2720.81,2648.97,3014.64,599.66,610.00,27.37,0000 0000 0000 0000 000000
2017-12-21 11:46:20,0.04,1.93,0.00,15.76,18.88,22.23,14.29,47.33,1015.64,2059.15,2720.22,2648.58,3014.07,600.32,610.70,27.42,0000 0000 0000 0000 000000
2017-12-21 11:51:22,0.00,1.93,0.00,15.78,18.89,22.24,14.31,47.40,1015.66,2059.05,2720.00,2648.04,3013.98,599.63,609.98,27.47,0000 0000 0000 0000 000000
2017-12-21 11:56:23,0.01,1.93,0.00,15.82,18.92,22.23,14.27,47.16,1015.68,2059.03,2719.99,2648.00,3013.78,599.91,610.26,27.52,0000 0000 0000 0000 000000
2017-12-21 12:01:24,0.02,1.93,0.00,15.83,18.94,22.31,14.31,47.27,1015.73,2059.01,2719.65,2647.97,3013.10,599.70,609.88,27.57,0000 0000 0000 0000 000000
2017-12-21 12:06:25,0.02,1.94,0.00,15.84,18.96,22.34,14.21,47.31,1015.84,2059.00,2719.09,2647.77,3012.99,599.47,609.69,27.62,0000 0000 0000 0000 000000
2017-12-21 12:11:26,0.02,1.94,0.00,15.87,18.97,22.32,14.32,47.33,1015.93,2059.00,2719.00,2647.10,3012.92,599.98,610.32,27.67,0000 0000 0000 0000 000000
2017-12-21 12:16:28,0.03,1.94,0.00,15.89,18.99,22.36,14.24,47.33,1016.02,2059.00,2718.65,2647.00,3012.31,599.77,610.07,27.72,0000 0000 0000 0000 000000
2017-12-21 12:21:29,0.01,1.94,0.00,15.93,19.01,22.35,14.32,47.25,1016.12,2059.00,2718.06,2646.95,3012.00,600.54,610.71,27.77,0000 0000 0000 0000 000000
2017-12-21 12:26:30,0.02,1.94,0.00,15.96,19.03,22.34,14.30,47.38,1016.13,2058.98,2717.97,2646.35,3011.93,599.79,609.86,27.82,0000 0000 0000 0000 000000
2017-12-21 12:31:31,0.03,1.94,0.00,15.99,19.04,22.38,14.31,47.33,1016.13,2058.98,2717.48,2646.02,3011.20,599.74,610.02,27.87,0000 0000 0000 0000 000000
2017-12-21 12:36:33,0.00,1.94,0.00,15.99,19.07,22.33,14.27,47.32,1016.13,2058.98,2717.03,2645.99,3011.00,599.79,609.98,27.92,0000 0000 0000 0000 000000
2017-12-21 12:41:34,0.00,1.94,0.00,16.01,19.08,22.37,14.25,47.41,1016.13,2058.96,2716.99,2645.92,3010.95,599.75,609.78,27.97,0000 0000 0000 0000 000000
2017-12-21 12:46:35,0.05,1.94,0.00,16.04,19.09,22.41,14.29,47.46,1016.13,2058.90,2716.46,2645.19,3010.20,599.98,610.01,28.03,0000 0000 0000 0000 000000
2017-12-21 12:51:37,-0.02,1.95,0.00,16.04,19.12,22.46,14.36,47.34,1016.13,2058.77,2716.02,2645.00,3010.00,600.85,610.84,28.08,0000 0000 0000 0000 000000
2017-12-21 12:56:38,-0.01,1.94,0.00,16.04,19.13,22.46,14.33,47.48,1016.13,2058.53,2715.92,2644.99,3009.97,600.22,610.25,28.13,0000 0000 0000 0000 000000